Location: Albany
(35.0000°S, 118.0000°E)
Time: 01:35:14
(UTC-05:00)

Transit 2A - Visible Passes

Search period start: 28 January 2015 00:00
Search period end: 07 February 2015 00:00
Orbit: 593 x 969 km, 66.7° (Epoch: 27 January)

Date Brightness Start Highest point End Pass type
(mag) Time Alt. Az. Time Alt. Az. Time Alt. Az.
28 Jan 8.4 11:52:35 10° SSW 11:53:18 14° SSW 11:53:18 14° SSW visible
29 Jan 8.4 11:19:10 10° S 11:20:01 15° S 11:20:01 15° S visible
30 Jan 8.4 10:45:55 10° S 10:46:45 14° SSE 10:46:45 14° SSE visible
31 Jan 8.4 10:13:01 10° SSE 10:13:33 11° SSE 10:13:33 11° SSE visible
01 Feb 8.7 11:20:49 10° SSW 11:20:52 10° SSW 11:20:52 10° SSW visible
02 Feb 8.5 10:47:11 10° SSW 10:47:45 14° SSW 10:47:45 14° SSW visible
03 Feb 8.3 10:13:41 10° S 10:14:40 16° S 10:14:40 16° S visible
04 Feb 8.1 09:40:22 10° S 09:41:38 16° SSE 09:41:38 16° SSE visible
05 Feb 8.0 09:07:20 10° SSE 09:08:37 14° SSE 09:08:37 14° SSE visible
06 Feb 8.1 08:35:06 10° SE 08:35:38 11° SE 08:35:38 11° SE visible
06 Feb 8.4 10:15:27 10° SSW 10:16:08 14° SSW 10:16:08 14° SSW visible
